Overview Statistics Trail Chart Weather Telemetry Raw packets
 

This is the latest recevied weather packets stored in our database for station/object WX4SGA. If no packets are shown the sender has not sent any weather packets the latest 10 day(s).

<< 103 104 105 106 107 108 109 >>
Time Temp. Humidity Pressure Rain* Wind** Luminosity Snow
1787838560 28.33° C 87% 1016.3 hPa 0 mm - 502 W/m² -
1787838259 27.78° C 88% 1016.3 hPa 0 mm - 274 W/m² -
1787837957 27.22° C 90% 1016.3 hPa 0 mm - 162 W/m² -
1787837657 27.22° C 91% 1016.3 hPa 0 mm - 141 W/m² -
1787837352 26.67° C 93% 1016.3 hPa 0 mm - 111 W/m² -
1787837048 26.11° C 94% 1016.3 hPa 0 mm - 112 W/m² -
1787836746 25.56° C 95% 1016.3 hPa 0 mm - 78 W/m² -
1787836442 25.56° C 97% 1016.3 hPa 0 mm - 87 W/m² -
1787836137 25° C 98% 1016.6 hPa 0 mm - 75 W/m² -
1787835833 25° C 99% 1016.3 hPa 0 mm - 77 W/m² -
1787835531 24.44° C 99% 1016.3 hPa 0 mm - 74 W/m² -
1787835227 24.44° C 99% 1016.3 hPa 0 mm - 59 W/m² -
1787834927 24.44° C 99% 1016.3 hPa 0 mm - 52 W/m² -
1787834626 23.89° C 99% 1016.3 hPa 0 mm - 51 W/m² -
1787834321 23.89° C 99% 1016.3 hPa 0 mm - 47 W/m² -
1787834017 23.89° C 99% 1016.3 hPa 0 mm - 45 W/m² -
1787833712 23.89° C 99% 1015.9 hPa 0 mm - 44 W/m² -
1787833408 23.89° C 99% 1015.9 hPa 0 mm - 42 W/m² -
1787833103 23.89° C 99% 1015.9 hPa 0 mm - 40 W/m² -
1787832799 23.89° C 99% 1015.9 hPa 0 mm - 40 W/m² -
1787832494 23.89° C 99% 1015.9 hPa 0 mm - 39 W/m² -
1787832188 23.89° C 99% 1015.9 hPa 0 mm - 36 W/m² -
1787831885 23.33° C 99% 1015.9 hPa 0 mm - 33 W/m² -
1787831581 23.89° C 99% 1015.9 hPa 0 mm - 30 W/m² -
1787831279 22.78° C 99% 1015.9 hPa 0 mm - 28 W/m² -

* Rain latest hour (hover to see other rain measurements)
** Current wind speed in m/s (hover to see current wind gust speed)